Regional Weather Roundup
Issued by NWS

Home | Current Version | Previous Version | Text Only | Print | Product List | Glossary Off
Versions: 1 2 3 4 5 6 7 8 9 10 11 12 13 14 15 16 17 18 19 20 21 22 23 24 25 26 27 28 29 30 31 32 33 34 35 36 37 38 39 40 41 42 43 44 45 46 47 48 49 50

000
ASUS43 KOAX 170202
RWRNE

WEATHER ROUNDUP FOR NEBRASKA
NATIONAL WEATHER SERVICE OMAHA NE
800 PM CST MON JAN 16 2017

NOTES: SATELLITE DATA IS BEING USED TO AUGMENT CLOUD COVER ABOVE
       12000 FEET.
       "FAIR" INDICATES FEW OR NO CLOUDS BELOW 12,000 FEET WITH NO
       SIGNIFICANT WEATHER AND/OR OBSTRUCTIONS TO VISIBILITY.

  * THESE STATIONS DO NOT REPORT WEATHER SUCH AS RAIN...SNOW OR FOG.

NEZ001>004-019>022-054>056-170300-
NEBRASKA PANHANDLE

CITY           SKY/WX    TMP DP  RH WIND       PRES   REMARKS
SCOTTSBLUFF    CLEAR     30  19  63 NW6       30.11R WCI  24
ALLIANCE       CLOUDY    22  17  81 NW3       30.09R
CHADRON        CLEAR     21  14  74 S6        30.11S WCI  13
KIMBALL        CLOUDY    30  19  63 NW12      30.09S WCI  21
SIDNEY         CLOUDY    33  23  66 N13       30.08S WCI  24
$$

NEZ057>060-069>072-079>082-170300-
SOUTHWEST NEBRASKA

CITY           SKY/WX    TMP DP  RH WIND       PRES   REMARKS
NORTH PLATTE   CLOUDY    34  24  67 NW10      30.05R WCI  26
IMPERIAL       CLOUDY    34  26  72 NW15      30.07R WCI  24
LEXINGTON      CLOUDY    35  30  82 NW10G16   30.03S WCI  27
MCCOOK         CLOUDY    34  31  88 W10       30.05S WCI  26
OGALLALA       CLOUDY    34  27  74 W6        30.07S WCI  29
$$

NEZ005>010-023>029-035>040-094-170300-
NORTH CENTRAL NEBRASKA

CITY           SKY/WX    TMP DP  RH WIND       PRES   REMARKS
VALENTINE      CLOUDY    22  14  71 W3        30.06S
AINSWORTH      CLOUDY    25  18  76 NW8       30.04S WCI  16
BROKEN BOW     CLOUDY    32  26  78 N13       30.02R WCI  22
O`NEILL        CLOUDY    26  19  75 NW16G23   30.02S WCI  14
ORD            CLOUDY    32  23  69 N15       30.01R WCI  22
THEDFORD       CLEAR     29  20  68 NW8       30.05S WCI  21
$$

NEZ041-046>049-061>064-073>077-083>087-170300-
SOUTH CENTRAL NEBRASKA

CITY           SKY/WX    TMP DP  RH WIND       PRES   REMARKS
GRAND ISLAND   LGT SNOW N/A N/A N/A N12       29.99R
AURORA         CLOUDY    32  32 100 NW5       29.98S FOG     WCI  27
HASTINGS       CLOUDY    32  29  88 N18       30.00R WCI  20
HEBRON         CLOUDY    32  32  99 N5        29.99R WCI  28
HOLDREGE       CLOUDY    33  31  92 CALM      30.01S
KEARNEY *      CLOUDY    34  28  80 CALM      30.01S
YORK           CLOUDY    32  32 100 CALM      29.98R FOG
$$

NEZ011>018-030>034-042>045-170300-
NORTHEAST NEBRASKA

CITY           SKY/WX    TMP DP  RH WIND       PRES   REMARKS
NORFOLK        CLOUDY    30  26  85 N17       29.98R WCI  18
ALBION         CLOUDY    31  27  84 NW7       29.99R FOG     WCI  25
BLAIR          CLOUDY    33  32  97 N7        29.93S FOG     WCI  27
FREMONT        CLOUDY    33  33 100 N3        29.97R FOG
TEKAMAH        LGT RAIN  33  31  92 N13       29.96R FOG     WCI  24
WAYNE          MIX PCPN  31  30  94 NW7       29.98R WCI  25
$$

NEZ050>053-065>068-078-088>093-170300-
SOUTHEAST NEBRASKA

CITY           SKY/WX    TMP DP  RH WIND       PRES   REMARKS
LINCOLN        LGT RAIN  33  32  96 N14       29.98R FOG     WCI  23
OMAHA EPPLEY   CLOUDY    34  30  85 NW13      29.95R WCI  25
BEATRICE       CLOUDY    33  33  98 N6        29.95S WCI  28
FALLS CITY     CLOUDY    34  33  96 NW9       29.91R WCI  27
NEBRASKA CITY  CLOUDY    33  33 100 N10       29.93R FOG     WCI  25
PLATTSMOUTH    CLOUDY    33  31  94 NW8       29.92R FOG     WCI  26
$$

NEZ044-045-051>053-067-170300-
OMAHA AREA

CITY           SKY/WX    TMP DP  RH WIND       PRES   REMARKS
OMAHA EPPLEY   CLOUDY    34  30  85 NW13      29.95R WCI  25
BLAIR          CLOUDY    33  32  97 N7        29.93S FOG     WCI  27
FREMONT        CLOUDY    33  33 100 N3        29.97R FOG
MILLARD        CLOUDY    35  34  94 NW5       29.95R WCI  31
PLATTSMOUTH    CLOUDY    33  31  94 NW8       29.92R FOG     WCI  26
WAHOO          MIX PCPN  32  32  99 N12       29.96R WCI  23
$$




USA.gov is the U.S. government's official web portal to all federal, state and local government web resources and services.